Terminal Aerodrome Forecast
Issued by NWS

Home | Current Version | Previous Version | Text Only | Print | Product List | Glossary On
Versions: 1 2 3 4 5 6 7 8 9 10 11 12 13 14 15 16 17 18 19 20 21 22 23 24
000
FTUS45 KGJT 211124
TAFEGE
TAF
KEGE 211124Z 2112/2212 VRB03KT P6SM VCSH SCT060 BKN080
     FM211500 20006KT P6SM VCSH SCT060 BKN100
     FM212000 23007KT P6SM VCTS SCT060CB BKN120
     FM220100 09006KT P6SM VCTS SCT050CB BKN100
     FM220600 20005KT P6SM VCSH SCT050 BKN100
      AMD LTD TO CLD VIS AND WIND TIL 211300=

USA.gov is the U.S. government's official web portal to all federal, state and local government web resources and services.